Find Kosmos-2572

NORAD ID: 58435 Int'l Des: 2023-182 Owner: MORF Country: RU operational
LEOCIRCULARRETROGRADESSO

当前视图

正在加载3D地球...

About Kosmos-2572

Kosmos-2572 (NORAD 58435) is a satellite launched Nov 25, 2023 by MORF of RU. It operates in LEO, CIRCULAR, RETROGRADE, SSO orbit with a mass of 1000.00 kg.

即将过境

Passes for default location (London). Set your location on the main map for personalized predictions.

高度历史

Loading altitude history...

两行轨道根数

1 58435U 23182A 26194.80549738 .00043303 25412-5 14536-3 0 9991
2 58435 96.6810 298.4506 0015700 181.3348 178.7888 15.90089023152688
Epoch: Jul 13, 2026 • Age: 12 hours

当前状态

高度 331.5 km
远地点 / 近地点 N/A
速度 7.71 km/s
星下点 -79.75°S, 59.17°W
发射日期 Nov 25, 2023
运行时间 2.6 years
类型 other

技术详情

分类 Payload
质量 1000.00 kg
干质量 1000.00 kg
总质量 1000.00 kg
长度 3.00 m
直径 3.00 m
跨度 6.50 m
形状 Cyl + 2 Pan
制造商 TSSKBP/ARSLO
平台类型 Razdan
阶段状态 In Orbit
所有者/国家 MORF/RU

Most Searched